Home   Weather   Paterson   Past weeks

Flag for USA Past Weather in Paterson, New Jersey, USA — Yesterday and Last 2 Weeks

Now
56 °F

Fog.


Feels Like: 54 °F
Forecast: 56 / 63 °F
Wind: 7 mph from Northeast

Location: Essex County Airport

Current Time: Oct 1, 2016 at 6:34:52 AM

Latest Report: Oct 1, 2016 at 5:53 AM


Visibility: 4 mi

Pressure: 30.24 "Hg

Humidity: 93%

Dew Point: 54 °F

Location of PatersonLocation

Past Weather in Paterson — Graph

°F

Paterson Temperature Yesterday

Maximum temperature yesterday: 60 °F (at 2:53 PM)
Minimum temperature yesterday: 55 °F (at 7:53 AM)
Average temperature yesterday: 57 °F

High & Low Weather Summary for the Past Weeks

 TemperatureHumidityPressure
High88 °F (Sep 23, 2:53 PM)100% (Sep 20, 7:52 AM)30.39 "Hg (Sep 20, 7:52 AM)
Low45 °F (Sep 26, 5:53 AM)24% (Sep 21, 3:53 PM)29.89 "Hg (Sep 27, 3:53 PM)
Average66 °F74%30.15 "Hg
* Reported Sep 16 4:53 AM — Oct 1 4:53 AM, Paterson, Weather by CustomWeather, © 2016

Note: Actual official high and low records may vary slightly from our data, if they occured in-between our weather recording intervals... More about our weather records

Advertising

Paterson Weather History for the Previous 24 Hours

Scroll right to see more
 ConditionsComfort  
Time TempWeatherWind HumidityBarometerVisibility
4:53 AM
Sat, Oct 1
56 °FOvercast.7 mph90%30.24 "Hg9 mi
3:53 AM56 °FOvercast.9 mph90%30.24 "Hg10 mi
2:53 AM56 °FOvercast.6 mph90%30.26 "Hg10 mi
1:53 AM56 °FOvercast.6 mph90%30.26 "Hg10 mi
12:53 AM56 °FOvercast.7 mph90%30.27 "Hg10 mi
11:53 PM
Fri, Sep 30
56 °FOvercast.7 mph90%30.27 "Hg10 mi
10:53 PM56 °FFog.8 mph93%30.28 "Hg4 mi
9:53 PM56 °FFog.8 mph93%30.29 "Hg4 mi
8:53 PM56 °FFog.7 mph93%30.29 "Hg4 mi
7:53 PM57 °FFog.6 mph93%30.29 "Hg4 mi
7:02 PM57 °FFog.7 mph93%30.27 "Hg4 mi
6:53 PM57 °FFog.6 mph93%30.29 "Hg3 mi
5:53 PM58 °FLight rain. Fog.6 mph90%30.29 "Hg2 mi
5:04 PM58 °FFog.8 mph93%30.26 "Hg3 mi
4:53 PM58 °FFog.7 mph93%30.28 "Hg2 mi
3:53 PM59 °FFog.10 mph87%30.27 "Hg6 mi
2:53 PM60 °FMostly cloudy.10 mph86%30.28 "Hg7 mi
1:53 PM59 °FLight rain. Fog.12 mph87%30.30 "Hg5 mi
12:53 PM59 °FLight rain. Overcast.8 mph84%30.32 "Hg5 mi
11:53 AM58 °FOvercast.9 mph84%30.32 "Hg8 mi
10:53 AM57 °FOvercast.7 mph87%30.34 "Hg10 mi
9:53 AM56 °FLight rain. Overcast.10 mph87%30.34 "Hg8 mi
8:53 AM55 °FLight rain. Fog.7 mph90%30.34 "Hg5 mi
7:53 AM55 °FLight rain. Overcast.10 mph83%30.34 "Hg10 mi
6:53 AM57 °FOvercast.14 mph74%30.33 "Hg10 mi
Weather by CustomWeather, © 2016

See weather overviewHow to use our weather pages